Weather History for CYRB - February, 2012

Change the Weather History Date:

Tuesday, February 21, 2012

  Actual Average Record
Temperature  
Mean Temperature -24 °F -  
Max Temperature -22 °F -20 °F -5 °F (1999)
Min Temperature -27 °F -30 °F -45 °F (2013)
Degree Days  
Heating Degree Days 90    
Moisture  
Dew Point -32 °F    
Average Humidity 64    
Maximum Humidity 69    
Minimum Humidity 45    
Precipitation  
Precipitation 0.00 in - - ()
Sea Level Pressure  
Sea Level Pressure 29.98 in    
Wind  
Wind Speed 3 mph ()    
Max Wind Speed 8 mph    
Max Gust Speed -    
Visibility 14.5 miles    
Events Snow    
Averages and records for this station are not official NWS values.
T = Trace of Precipitation, MM = Missing Value Source: Averaged Metar Reports

Daily Weather History Graph

Daily Weather History Graph

Search for Another Location

Airport or City:

Trip Planner

Search our weather history database for the weather conditions in past years. The results will help you decide how hot, cold, wet, or windy it might be!

Date:

Astronomy

Feb. 21, 2012 Rise Set
Actual Time 9:09 AM CST 3:59 PM CST
Civil Twilight 7:39 AM CST 5:29 PM CST
Nautical Twilight 6:07 AM CST 7:02 PM CST
Astronomical Twilight 4:32 AM CST 8:38 PM CST
Moon 8:07 AM CST (2/21) 4:58 PM CST (2/21)
Length of Visible Light 9h 50m
Length of Day
6h 49m
Waning Crescent, 0% of the Moon is Illuminated
Feb 21
Waning Crescent
Feb 21
New
Feb 29
First Quarter
Mar 8
Full
Mar 14
Last Quarter

Hourly Weather History & Observations

Time (CST) Temp. Windchill Dew Point Humidity Pressure Visibility Wind Dir Wind Speed Gust Speed Precip Events Conditions
12:00 AM -22 °F - -29 °F 53% 30.06 in 10 mi ESE 4.6 mph - - Snow Light Snow
12:00 AM -22.0 °F -35.6 °F -29.2 °F 69% 30.06 in 10.0 mi ESE 4.6 mph - N/A Snow Light Snow
1:00 AM -20.2 °F -30.9 °F -29.2 °F 63% 30.05 in 12.0 mi ESE 3.5 mph - N/A Snow Light Snow
2:00 AM -20.2 °F - -29.2 °F 63% 30.05 in 12.0 mi SE 2.3 mph - N/A Snow Light Snow
3:00 AM -20.2 °F -30.9 °F -27.4 °F 69% 30.04 in 15.0 mi ESE 3.5 mph - N/A Snow Light Snow
4:00 AM -20.2 °F -35.5 °F -27.4 °F 69% 30.03 in 15.0 mi SE 5.8 mph - N/A Snow Light Snow
5:00 AM -22.0 °F -41.0 °F -29.2 °F 69% 30.02 in 15.0 mi SE 8.1 mph - N/A Snow Light Snow
6:00 AM -22 °F - -30 °F 49% 30.02 in 15 mi ESE 8.1 mph - - Snow Light Snow
6:00 AM -22.0 °F -41.0 °F -29.2 °F 69% 30.02 in 15.0 mi ESE 8.1 mph - N/A Snow Light Snow
7:00 AM -23.8 °F -39.8 °F -31.0 °F 69% 30.01 in 15.0 mi ESE 5.8 mph - N/A Snow Light Snow
8:00 AM -23.8 °F -41.6 °F -31.0 °F 69% 29.99 in 15.0 mi SE 6.9 mph - N/A Snow Light Snow
9:00 AM -25.6 °F - -32.8 °F 69% 29.99 in 15.0 mi SSE 2.3 mph - N/A Snow Light Snow
9:26 AM - - - N/A% - 15.0 mi Calm Calm - N/A   Partly Cloudy
10:00 AM -25.6 °F - -32.8 °F 69% 29.98 in 15.0 mi Calm Calm - N/A   Partly Cloudy
11:00 AM -25.6 °F -37.1 °F -32.8 °F 69% 29.96 in 15.0 mi SE 3.5 mph - N/A   Partly Cloudy
12:00 PM -26 °F - -35 °F 45% 29.96 in 15 mi ESE 5.8 mph - -   Partly Cloudy
12:00 PM -25.6 °F -41.9 °F -34.6 °F 63% 29.96 in 15.0 mi ESE 5.8 mph - N/A   Partly Cloudy
1:00 PM -25.6 °F -37.1 °F -32.8 °F 69% 29.95 in 15.0 mi SE 3.5 mph - N/A   Partly Cloudy
2:00 PM -23.8 °F -37.7 °F -32.8 °F 63% 29.96 in 15.0 mi ESE 4.6 mph - N/A   Partly Cloudy
3:00 PM -23.8 °F - -31.0 °F 69% 29.95 in 15.0 mi Calm Calm - N/A   Clear
4:00 PM -25.6 °F - -32.8 °F 69% 29.95 in 15.0 mi Calm Calm - N/A   Partly Cloudy
5:00 PM -25.6 °F -37.1 °F -34.6 °F 63% 29.94 in 15.0 mi NNW 3.5 mph - N/A   Partly Cloudy
6:00 PM -25 °F - -33 °F 48% 29.93 in 15 mi Calm Calm - -   Scattered Clouds
6:00 PM -25.6 °F - -32.8 °F 69% 29.93 in 15.0 mi Calm Calm - N/A   Partly Cloudy
6:48 PM - - - N/A% - 15.0 mi Calm Calm - N/A   Partly Cloudy
7:00 PM -27.4 °F - -34.6 °F 69% 29.92 in 15.0 mi Calm Calm - N/A   Partly Cloudy
8:00 PM -27.4 °F - -34.6 °F 69% 29.91 in 15.0 mi Calm Calm - N/A   Clear
9:00 PM -23.8 °F - -34.6 °F 57% 29.90 in 15.0 mi Calm Calm - N/A   Clear
10:00 PM -23.8 °F -35.0 °F -32.8 °F 63% 29.89 in 15.0 mi NW 3.5 mph - N/A   Partly Cloudy
11:00 PM -25.6 °F -39.8 °F -32.8 °F 69% 29.88 in 15.0 mi NW 4.6 mph - N/A   Partly Cloudy